Lid_Strength_Index
2 2 2 4 5 5 4 1 1 1 1 1 1 1 1 1 1 1 1 1 1 1 1 1 1 0 1 0 0 1 1 1 3 2 1 1 1 2 2 2 3 2 4
2 2 2 1 4 4 5 4 1 1 2 1 1 1 1 1 1 1 1 1 1 2 1 1 1 1 1 0 1 1 1 0 2 3 2 3 2 2 2 2 3 2 3
2 2 1 1 2 4 4 4 1 1 1 2 3 1 1 1 1 1 1 1 1 1 1 1 1 1 1 1 1 1 1 1 1 3 3 2 2 2 3 2 2 1 4
3 2 2 2 1 2 4 4 3 1 1 1 2 3 5 1 1 1 1 1 1 1 1 1 1 1 1 1 1 1 1 1 1 3 3 3 3 3 3 4 4 3 5
3 3 2 2 1 1 3 3 3 1 1 1 3 4 2 2 1 1 1 1 1 1 1 1 1 1 3 2 1 1 1 2 3 3 4 4 5 5 4 3 4 4 3
4 4 2 2 2 1 2 4 2 2 2 2 2 2 1 1 7 7 2 1 1 1 1 1 0 3 5 7 6 4 1 1 2 4 5 5 5 5 4 5 5 4 6
5 4 3 3 2 1 1 2 4 2 2 2 2 2 2 1 9 9 8 1 1 1 1 1 1 1 4 4 9 9 9 8 5 4 6 4 5 6 5 6 4 3 4
5 4 3 3 2 1 1 2 3 2 2 2 2 2 2 2 10 11 9 1 1 1 1 1 1 2 2 4 4 6 6 5 5 5 3 3 4 4 4 3 1 1 2
6 5 4 2 3 2 2 2 2 3 2 2 2 2 2 2 12 12 5 1 1 1 1 1 1 3 11 10 6 7 7 9 10 10 8 8 8 7 4 2 4 4 3
7 6 4 3 2 2 1 1 1 2 2 2 2 1 3 2 15 13 5 1 2 2 1 3 8 4 12 12 6 7 7 7 8 6 8 8 6 6 7 1 3 3 3
7 7 5 3 2 1 1 1 1 2 2 2 2 2 1 2 6 13 11 1 2 2 3 4 4 12 13 12 10 6 8 8 9 8 6 5 4 3 3 2 -1 1 2
8 7 5 3 2 2 2 1 1 1 2 2 2 2 2 1 9 14 14 10 6 2 2 2 5 13 13 13 9 13 13 10 7 7 6 5 5 4 3 2 -1 0 1
8 6 4 2 1 1 2 2 2 1 2 2 2 3 3 4 4 13 13 13 11 2 1 5 12 14 14 12 13 13 12 6 5 5 5 5 4 3 2 2 1 1 1
8 5 3 3 2 2 2 2 3 2 3 3 3 3 3 2 3 5 7 7 10 6 9 10 10 10 10 10 10 10 7 6 6 5 4 4 4 5 5 3 4 5 5
8 7 6 4 3 3 4 5 2 4 6 3 3 2 3 3 3 6 7 5 5 9 9 10 10 8 11 9 9 7 8 6 6 5 4 5 5 5 5 3 4 5 6
9 8 7 6 4 3 2 2 12 11 12 13 14 9 2 9 11 11 11 11 13 12 8 9 9 9 10 9 9 8 7 8 6 5 5 6 6 6 4 3 4 5 6
9 9 7 7 6 5 4 4 3 5 11 12 13 13 11 9 12 12 12 13 12 11 7 8 9 9 8 9 8 7 8 6 6 5 6 7 6 5 5 4 5 6 6
9 10 7 7 7 6 5 6 5 5 5 4 9 13 14 13 13 13 14 12 10 9 7 8 8 7 8 8 8 7 6 6 6 6 7 6 5 5 4 5 5 6 6
8 10 8 7 7 7 7 7 7 7 7 6 6 8 12 14 14 14 12 7 8 6 6 7 8 8 8 8 7 7 6 7 7 7 7 6 6 6 5 5 6 10 8
8 10 9 8 8 8 8 8 9 10 10 9 9 8 9 10 10 10 8 7 7 7 7 7 7 7 7 7 6 7 7 8 8 8 7 7 6 6 5 5 6 7 6
9 9 12 8 9 9 9 9 10 10 11 10 10 11 14 8 8 9 8 8 7 7 7 7 7 7 8 8 8 8 9 9 9 8 7 7 7 7 6 6 7 7 7
9 9 10 11 11 12 12 12 12 11 11 11 10 11 13 9 9 10 10 9 8 7 7 8 8 8 7 9 8 9 9 10 9 9 8 8 7 7 7 7 7 7 8
10 10 11 11 12 13 13 14 14 13 13 13 13 11 10 11 10 10 10 10 10 9 8 7 8 9 8 8 9 8 9 9 9 9 8 8 8 8 8 8 8 8 9
9 10 11 11 11 12 12 13 13 15 14 14 14 14 13 12 11 11 10 10 10 10 9 9 8 8 7 8 9 8 9 9 9 9 8 8 8 9 8 8 8 8 9
9 10 10 10 11 11 12 12 13 14 15 14 15 14 13 12 12 12 12 11 11 10 10 10 9 8 9 9 10 11 15 16 10 12 8 8 8 8 9 9 9 9 9
7 8 9 10 11 11 11 12 12 12 13 14 14 14 13 13 12 12 12 12 13 13 12 12 11 11 11 11 13 16 16 16 12 14 9 9 9 9 9 9 9 10 10